International Skating Union - Official Site

ESSENT ISU WORLD DISTANCES CHAMPIONSHIPS 2011
March 10-13, 2011

Draw | Lap Times | Index | World Cup

Referee: Ernest  KRETSCHMANN  (USA)
Starter: Bernhard  MAYER  (GER)
StartTime: EndTime: Air Temp: Ice Temp: Humidity:
Result Team Pursuit Ladies
Rankings as of Mar 13 2011 4:20PM
Rank: No.: Team: Nation: Time: Behind: Points:
Total 8
1 5 Canada (3) Christine NESBITT (4) Brittany SCHUSSLER (5) Cindy KLASSEN CAN CAN 2:59.740.5 - 18.89 - (18.8)
1.0 - 32.69 - (13.8)
1.5 - 46.50 - (13.8)
2.0 - 1:00.43 - (13.9)
2.5 - 1:14.80 - (14.3)
3.0 - 1:29.26 - (14.4)
3.5 - 1:43.90 - (14.6)
4.0 - 1:58.58 - (14.6)
4.5 - 2:13.50 - (14.9)
5.0 - 2:28.65 - (15.1)
5.5 - 2:44.13 - (15.4)
6.0 - 2:59.74 - (15.6)
2 1 Netherlands (39) Ireen WÜST (42) Diane VALKENBURG (44) Marrit LEENSTRA NED NED 3:00.430.5 - 18.62 - (18.6)
1.0 - 32.17 - (13.5)
1.5 - 46.06 - (13.8)
2.0 - 59.78 - (13.7)
2.5 - 1:13.85 - (14.0)
3.0 - 1:28.34 - (14.4)
3.5 - 1:43.09 - (14.7)
4.0 - 1:58.14 - (15.0)
4.5 - 2:13.11 - (14.9)
5.0 - 2:28.58 - (15.4)
5.5 - 2:44.27 - (15.6)
6.0 - 3:00.43 - (16.1)
0.69
3 2 Germany (17) Stephanie BECKERT (19) Isabell OST (23) Claudia PECHSTEIN GER GER 3:01.820.5 - 19.99 - (19.9)
1.0 - 34.76 - (14.7)
1.5 - 49.22 - (14.4)
2.0 - 1:03.86 - (14.6)
2.5 - 1:18.45 - (14.5)
3.0 - 1:33.39 - (14.9)
3.5 - 1:48.09 - (14.7)
4.0 - 2:02.93 - (14.8)
4.5 - 2:17.88 - (14.9)
5.0 - 2:32.64 - (14.7)
5.5 - 2:47.21 - (14.5)
6.0 - 3:01.82 - (14.6)
2.08
4 7 Japan (32) Eriko ISHINO (33) Masako HOZUMI (34) Miho TAKAGI JPN JPN 3:03.200.5 - 19.53 - (19.5)
1.0 - 33.75 - (14.2)
1.5 - 47.68 - (13.9)
2.0 - 1:01.83 - (14.1)
2.5 - 1:16.25 - (14.4)
3.0 - 1:30.82 - (14.5)
3.5 - 1:45.55 - (14.7)
4.0 - 2:00.47 - (14.9)
4.5 - 2:15.99 - (15.5)
5.0 - 2:31.58 - (15.5)
5.5 - 2:47.27 - (15.6)
6.0 - 3:03.20 - (15.9)
3.46
5 3 Norway (48) Hege BØKKO (49) Ida NJÅTUN (50) Mari HEMMER NOR NOR 3:04.260.5 - 18.97 - (18.9)
1.0 - 33.01 - (14.0)
1.5 - 46.97 - (13.9)
2.0 - 1:01.00 - (14.0)
2.5 - 1:15.57 - (14.5)
3.0 - 1:30.22 - (14.6)
3.5 - 1:45.43 - (15.2)
4.0 - 2:01.03 - (15.6)
4.5 - 2:17.00 - (15.9)
5.0 - 2:32.65 - (15.6)
5.5 - 2:48.59 - (15.9)
6.0 - 3:04.26 - (15.6)
4.52
6 4 Russia (56) Yekaterina LOBYSHEVA (57) Yekaterina SHIKHOVA (61) Yevgenia DMITRIEVA RUS RUS 3:05.280.5 - 19.10 - (19.1)
1.0 - 33.72 - (14.6)
1.5 - 48.29 - (14.5)
2.0 - 1:03.00 - (14.7)
2.5 - 1:17.87 - (14.8)
3.0 - 1:32.88 - (15.0)
3.5 - 1:47.90 - (15.0)
4.0 - 2:03.05 - (15.1)
4.5 - 2:18.43 - (15.3)
5.0 - 2:33.76 - (15.3)
5.5 - 2:49.27 - (15.5)
6.0 - 3:05.28 - (16.0)
5.54
7 6 Poland (51) Luiza ZLOTKOWSKA (52) Natalia CZERWONKA (53) Katarzyna WOZNIAK POL POL 3:06.300.5 - 19.18 - (19.1)
1.0 - 33.86 - (14.6)
1.5 - 48.41 - (14.5)
2.0 - 1:03.27 - (14.8)
2.5 - 1:17.94 - (14.6)
3.0 - 1:32.73 - (14.7)
3.5 - 1:47.52 - (14.7)
4.0 - 2:02.87 - (15.3)
4.5 - 2:18.69 - (15.8)
5.0 - 2:34.76 - (16.0)
5.5 - 2:50.55 - (15.7)
6.0 - 3:06.30 - (15.7)
6.56
8 8 USA (62) Heather RICHARDSON (63) Jilleanne ROOKARD (65) Rebekah BRADFORD USA USA 3:10.760.5 - 18.99 - (18.9)
1.0 - 33.36 - (14.3)
1.5 - 47.89 - (14.5)
2.0 - 1:02.53 - (14.6)
2.5 - 1:18.06 - (15.5)
3.0 - 1:33.53 - (15.4)
3.5 - 1:49.05 - (15.5)
4.0 - 2:04.63 - (15.5)
4.5 - 2:20.75 - (16.1)
5.0 - 2:36.92 - (16.1)
5.5 - 2:53.84 - (16.9)
6.0 - 3:10.76 - (16.9)
11.02